[[{"header":{"parameterUnit":"m.s-1","parameterCategory":1,"la1":30.2991,"la2":30.254,"lo1":-89.0895,"lo2":-89.0444,"dy":0.0017,"dx":0.0017,"nx":28,"ny":28,"refTime":"2023-10-06T03:00:00:Z","depth":0,"parameterNumber":2,"parameterNumberName":"U-component_of_WINDS"},"data":[0,0,0,0,0,0,0,0,0,0,0,0,0,0,0,0,0,0,0,0,0,0,0,0,0,0,0,0,0,0,0,0,0,0,0,0,0,0,0,0,0,0,0,0,0,0,0,0,0,0,0,0,0,0,0,0,0,0,1.6688,1.6687,0,1.6632,1.6632,1.6631,1.6607,1.6607,1.6607,1.6607,1.6546,1.6545,1.6543,0,0,0,0,0,0,0,0,0,0,0,0,0,1.6769,1.6768,1.6688,1.6687,1.6687,1.6632,1.6632,1.6631,1.6606,1.6607,1.6607,1.6607,1.6547,1.6545,1.6543,0,0,0,0,0,0,0,0,0,0,0,0,0,1.6726,1.6767,1.6688,1.6668,1.6666,1.6633,1.6632,1.6631,1.6606,1.6607,1.6607,1.6607,1.6548,1.6545,1.6543,1.6524,0,0,1.6535,1.6534,0,0,0,0,0,0,0,0,1.6728,1.6723,1.6672,1.6669,1.6667,1.6627,1.6638,1.6595,1.6606,1.6629,1.6607,1.6607,1.6573,1.6568,1.6557,1.6522,1.6519,1.6535,1.6533,1.6532,1.6531,0,0,0,0,0,0,0,1.6731,1.6725,1.6666,1.6671,1.6668,1.666,1.6654,1.663,1.6601,1.6627,1.6625,1.6619,1.6571,1.656,1.6556,1.6518,1.6535,1.6533,1.6531,1.653,1.6462,1.6462,0,0,0,0,0,0,1.6738,1.6728,1.6668,1.6664,1.6698,1.6659,1.6652,1.6639,1.6601,1.6595,1.6619,1.6618,1.6564,1.6559,1.6554,1.6528,1.6532,1.653,1.6528,1.6462,1.6462,1.6462,0,0,0,0,0,0,1.674,1.6733,1.667,1.6695,1.6687,1.6657,1.6643,1.6638,1.6627,1.6595,1.6589,1.6613,1.6564,1.6557,1.6532,1.6526,1.6529,1.6526,1.6463,1.6462,1.6462,1.6478,0,0,0,0,0,0,1.6742,1.6734,1.6728,1.6695,1.6686,1.665,1.6643,1.6637,1.6623,1.6621,1.6588,1.6582,1.6564,1.6535,1.6529,1.6522,1.6524,1.6463,1.6463,1.6462,1.6478,1.6478,1.6479,0,0,0,0,0,1.6745,1.6734,1.6727,1.672,1.6677,1.665,1.6644,1.6624,1.6622,1.6615,1.6594,1.6583,1.6528,1.6533,1.6526,1.6518,1.6463,1.6463,1.6462,1.6478,1.6478,1.6479,0,0,0,0,0,0,1.6766,1.673,1.6722,1.67,1.6678,1.6646,1.6636,1.6625,1.6603,1.6602,1.6577,1.657,1.6546,1.6529,1.6536,1.6497,1.6494,1.6492,1.6509,1.6509,1.6509,1.6513,1.6522,0,0,0,0,0,1.6768,1.675,1.6719,1.6703,1.6692,1.6666,1.6654,1.664,1.6616,1.6606,1.6584,1.656,1.6537,1.6522,1.6499,1.6476,1.6467,1.6466,1.6467,1.6467,1.6465,1.645,1.6449,1.646,1.646,1.646,0,0,1.6772,1.675,1.674,1.6706,1.6688,1.6668,1.6659,1.6639,1.6623,1.6603,1.6577,1.656,1.6531,1.6506,1.6494,1.6492,1.646,1.6466,1.6467,1.6465,1.6449,1.6448,1.6447,1.6459,1.6459,1.6459,0,0,1.6769,1.6751,1.6735,1.6717,1.6689,1.6671,1.6668,1.6636,1.6624,1.6598,1.6582,1.6563,1.6524,1.6504,1.6488,1.6476,1.6464,1.6469,1.6471,1.6456,1.6455,1.6454,1.6448,1.6446,1.6468,1.6468,1.6468,0,1.6777,1.6748,1.6728,1.6709,1.6693,1.6674,1.6657,1.6639,1.6605,1.6594,1.6593,1.6542,1.6522,1.6491,1.6488,1.6477,1.647,1.6473,1.6457,1.6456,1.6454,1.6448,1.6446,1.6468,1.6468,1.6468,1.6468,0,1.6759,1.6739,1.6729,1.6697,1.668,1.6662,1.6637,1.6623,1.661,1.6592,1.6565,1.654,1.6511,1.6502,1.649,1.6469,1.6468,1.6462,1.6458,1.6454,1.6448,1.6446,1.6469,1.6469,1.6469,1.6469,0,0,1.6768,1.6724,1.6721,1.6705,1.6673,1.6656,1.6636,1.6608,1.6595,1.6572,1.6553,1.652,1.6513,1.6496,1.6481,1.6468,1.6457,1.6463,1.6461,1.6461,1.6431,1.6435,1.6433,1.645,1.6449,1.6449,1.6432,0,1.676,1.6724,1.6704,1.6676,1.6656,1.6637,1.6619,1.6596,1.6579,1.6558,1.6538,1.6514,1.6508,1.6497,1.6484,1.6462,1.6451,1.6463,1.643,1.6429,1.6437,1.643,1.6434,1.6421,1.643,1.643,1.6429,0,1.6746,1.6723,1.6693,1.6661,1.6652,1.6636,1.6608,1.6589,1.6562,1.655,1.653,1.6514,1.649,1.6489,1.6454,1.6463,1.6448,1.6435,1.6434,1.6429,1.6429,1.6424,1.6416,1.6413,1.6426,1.6426,1.6426,0,1.6754,1.6715,1.6692,1.668,1.6642,1.6631,1.6615,1.6588,1.6572,1.6547,1.6535,1.6508,1.6492,1.647,1.6447,1.6449,1.6414,1.6411,1.6402,1.6402,1.6395,1.6396,1.6383,1.6387,1.6387,1.6387,1.6388,0,1.6746,1.6728,1.6695,1.6681,1.6659,1.6636,1.6615,1.6597,1.6572,1.6553,1.6534,1.6516,1.6487,1.6464,1.6446,1.6419,1.6412,1.64,1.6395,1.6401,1.6403,1.6391,1.6391,1.6387,1.6387,1.6387,1.6387,0,1.6751,1.6729,1.6702,1.6668,1.6659,1.6645,1.6615,1.6599,1.658,1.6556,1.6548,1.6518,1.649,1.6465,1.6428,1.6416,1.6388,1.6382,1.6397,1.6395,1.6386,1.6387,1.6365,1.636,1.6369,1.6369,1.6368,0,1.6748,1.6734,1.6698,1.6684,1.6668,1.6646,1.6629,1.6605,1.6588,1.6555,1.6543,1.6514,1.6489,1.6446,1.6419,1.639,1.6383,1.6378,1.6379,1.6385,1.6381,1.6382,1.638,1.6378,1.6378,1.6378,1.6378,0,1.6743,1.6732,1.671,1.6683,1.6664,1.6641,1.6618,1.6607,1.6578,1.6559,1.6531,1.6512,1.6474,1.6445,1.6413,1.6394,1.638,1.6378,1.6374,1.6379,1.6388,1.6381,1.6397,1.6378,1.6378,1.6378,1.6378,1.6378,1.6743,1.6729,1.6702,1.6676,1.6656,1.6634,1.6617,1.6596,1.6573,1.654,1.6527,1.6498,1.6468,1.6424,1.6405,1.6381,1.6378,1.6373,1.6371,1.637,1.637,1.6393,1.6375,1.6375,1.6375,1.6375,1.6375,0,1.6737,1.6718,1.6695,1.6663,1.6642,1.6632,1.6605,1.6588,1.6563,1.6538,1.6514,1.648,1.6451,1.6422,1.6391,1.6377,1.637,1.637,1.637,1.6365,1.6375,1.6381,1.6376,1.6376,1.6376,1.6376,1.6376,1.6376,1.6731,1.6706,1.6691,1.6655,1.6635,1.6607,1.6593,1.6571,1.6551,1.6514,1.649,1.6472,1.6444,1.6411,1.6383,1.6375,1.6364,1.6365,1.6355,1.6365,1.6365,1.6365,1.6371,1.6363,1.6363,1.6348,1.6347,1.6347]},{"header":{"parameterUnit":"m.s-1","parameterCategory":1,"la1":30.2991,"la2":30.254,"lo1":-89.0895,"lo2":-89.0444,"dy":0.0017,"dx":0.0017,"nx":28,"ny":28,"refTime":"2023-10-06T03:00:00:Z","depth":0,"parameterNumber":3,"parameterNumberName":"V-component_of_WINDS"},"data":[0,0,0,0,0,0,0,0,0,0,0,0,0,0,0,0,0,0,0,0,0,0,0,0,0,0,0,0,0,0,0,0,0,0,0,0,0,0,0,0,0,0,0,0,0,0,0,0,0,0,0,0,0,0,0,0,0,0,1.3167,1.3168,0,1.3223,1.3224,1.3225,1.3263,1.3263,1.3263,1.3264,1.3319,1.332,1.3321,0,0,0,0,0,0,0,0,0,0,0,0,0,1.3088,1.3089,1.3167,1.3168,1.3169,1.3223,1.3224,1.3225,1.3263,1.3263,1.3263,1.3264,1.3318,1.332,1.3321,0,0,0,0,0,0,0,0,0,0,0,0,0,1.3131,1.309,1.3167,1.3194,1.3197,1.3223,1.3224,1.3225,1.3263,1.3263,1.3264,1.3264,1.3318,1.332,1.3322,1.3324,0,0,1.3327,1.3328,0,0,0,0,0,0,0,0,1.3129,1.3134,1.3189,1.3192,1.3196,1.3237,1.3217,1.3258,1.3263,1.3238,1.3264,1.3264,1.3291,1.3295,1.3305,1.3327,1.3329,1.3327,1.3328,1.3329,1.333,0,0,0,0,0,0,0,1.3126,1.3132,1.3189,1.319,1.3194,1.3202,1.3209,1.3225,1.3261,1.324,1.3243,1.3249,1.3293,1.3303,1.3306,1.333,1.3327,1.3329,1.333,1.3331,1.3354,1.3354,0,0,0,0,0,0,1.3119,1.3129,1.3188,1.3191,1.3163,1.3203,1.321,1.3223,1.3261,1.3267,1.3249,1.3251,1.3299,1.3304,1.3308,1.3312,1.3329,1.3331,1.3332,1.3354,1.3354,1.3353,0,0,0,0,0,0,1.3117,1.3124,1.3185,1.3161,1.3169,1.3204,1.3218,1.3224,1.3234,1.3268,1.3274,1.3252,1.33,1.3306,1.3319,1.3315,1.3332,1.3333,1.3355,1.3354,1.3354,1.3321,0,0,0,0,0,0,1.3115,1.3123,1.3126,1.3161,1.317,1.3197,1.3218,1.3225,1.3237,1.324,1.3273,1.3279,1.3301,1.3317,1.3321,1.3317,1.3335,1.3356,1.3355,1.3354,1.3322,1.3319,1.3316,0,0,0,0,0,1.3112,1.3114,1.3126,1.3133,1.3175,1.3197,1.3202,1.3228,1.3237,1.3239,1.326,1.3278,1.3314,1.3318,1.3323,1.332,1.3356,1.3355,1.3354,1.3324,1.332,1.3316,0,0,0,0,0,0,1.3078,1.312,1.3133,1.3147,1.3168,1.3203,1.3207,1.3223,1.3242,1.3244,1.3274,1.3281,1.3291,1.3307,1.331,1.3323,1.3337,1.3337,1.3312,1.3309,1.3305,1.3301,1.3336,0,0,0,0,0,1.3072,1.3088,1.3123,1.3132,1.3142,1.3172,1.3183,1.32,1.3223,1.3232,1.3255,1.3275,1.3291,1.3301,1.3317,1.3325,1.3331,1.3325,1.3322,1.3319,1.3318,1.332,1.3317,1.335,1.335,1.335,0,0,1.3061,1.3085,1.3093,1.3126,1.3144,1.3157,1.318,1.3194,1.3203,1.3234,1.3248,1.3265,1.3289,1.3299,1.3305,1.3313,1.331,1.3317,1.3315,1.3316,1.3319,1.3316,1.3313,1.3349,1.3349,1.3349,0,0,1.3047,1.3067,1.3076,1.3093,1.3121,1.314,1.3142,1.3174,1.3186,1.3201,1.3223,1.3234,1.3262,1.3278,1.3289,1.3277,1.3293,1.3281,1.3264,1.3266,1.3263,1.3261,1.3254,1.3252,1.328,1.328,1.328,0,1.3029,1.3051,1.3078,1.309,1.3103,1.3131,1.3138,1.3153,1.3184,1.3191,1.32,1.3233,1.3252,1.3264,1.3261,1.327,1.3271,1.3278,1.3262,1.326,1.3258,1.3252,1.325,1.3279,1.3279,1.3279,1.3279,0,1.3026,1.3041,1.3045,1.3073,1.3086,1.3096,1.3123,1.3132,1.3147,1.3165,1.3178,1.3201,1.3221,1.3226,1.3242,1.3239,1.3243,1.3256,1.3271,1.3253,1.3247,1.3245,1.3276,1.3277,1.3277,1.3278,0,0,1.2995,1.3036,1.3037,1.3049,1.3079,1.309,1.31,1.312,1.3126,1.3145,1.3152,1.3173,1.3185,1.3198,1.3215,1.3217,1.3202,1.3229,1.323,1.3222,1.3198,1.3186,1.3184,1.3213,1.3212,1.3212,1.3195,0,1.2984,1.3004,1.3027,1.3038,1.305,1.3075,1.3082,1.3101,1.3117,1.3128,1.3146,1.3159,1.3175,1.3182,1.3185,1.3203,1.3197,1.3205,1.3218,1.3218,1.321,1.3181,1.3171,1.3153,1.3193,1.3193,1.3193,0,1.2976,1.2993,1.3004,1.303,1.3036,1.3043,1.3061,1.3073,1.3092,1.3104,1.3116,1.3134,1.3143,1.3156,1.3168,1.3172,1.3178,1.3188,1.3188,1.3189,1.3204,1.318,1.3149,1.3145,1.319,1.319,1.319,0,1.2949,1.2975,1.2985,1.2994,1.3025,1.3029,1.3042,1.3062,1.3071,1.3087,1.3092,1.3109,1.3117,1.3128,1.3149,1.3157,1.3157,1.3173,1.3165,1.3164,1.3163,1.3163,1.313,1.3169,1.3169,1.3169,1.3169,0,1.2935,1.294,1.2973,1.2979,1.2985,1.301,1.3014,1.3029,1.3046,1.3054,1.3076,1.3083,1.3111,1.3119,1.3136,1.3141,1.3145,1.3153,1.3157,1.315,1.3149,1.3154,1.3155,1.3169,1.3169,1.3169,1.3169,0,1.2907,1.2929,1.2941,1.2968,1.2975,1.2978,1.3,1.3006,1.3022,1.3031,1.3034,1.3059,1.3071,1.3092,1.311,1.3121,1.3121,1.313,1.3115,1.3117,1.3107,1.3107,1.3076,1.3072,1.3114,1.3114,1.3114,0,1.2896,1.2901,1.2927,1.2934,1.2946,1.2956,1.2965,1.2989,1.2997,1.3017,1.302,1.3032,1.3044,1.306,1.3079,1.3092,1.3099,1.3088,1.3102,1.3093,1.3097,1.3096,1.3095,1.3084,1.3084,1.3083,1.3083,0,1.2873,1.2883,1.2896,1.291,1.292,1.2933,1.2947,1.2951,1.2977,1.2984,1.2996,1.3005,1.3021,1.3033,1.3047,1.3059,1.3074,1.3078,1.3077,1.3069,1.306,1.3062,1.3105,1.3079,1.3079,1.3079,1.308,1.308,1.2853,1.2857,1.2875,1.2887,1.2899,1.2911,1.2916,1.2932,1.2942,1.2957,1.297,1.298,1.2996,1.3017,1.3027,1.3033,1.3041,1.304,1.3039,1.3038,1.3034,1.3059,1.3036,1.3037,1.3037,1.3037,1.3037,0,1.283,1.2842,1.2853,1.2871,1.2879,1.2892,1.2907,1.2913,1.2921,1.2935,1.2945,1.2956,1.2966,1.2984,1.2996,1.2997,1.3004,1.2999,1.2998,1.3,1.3028,1.3027,1.2993,1.2993,1.2993,1.2993,1.2993,1.2993,1.2819,1.2826,1.2837,1.2848,1.286,1.2869,1.2876,1.2886,1.2896,1.2908,1.2916,1.2928,1.2942,1.2954,1.2963,1.2968,1.297,1.2962,1.2969,1.2995,1.2999,1.3003,1.3002,1.2963,1.2963,1.2941,1.2941,1.2941]}]]